Weather History for Whiting Fld NAS, FL

Change the Weather History Date:

Friday, April 26, 2013

  Actual Average Record
Temperature  
Mean Temperature 67 °F -  
Max Temperature 82 °F 77 °F 84 °F (1999)
Min Temperature 52 °F 57 °F 51 °F (2001)
Cooling Degree Days 2    
Growing Degree Days 17 (Base 50)    
Moisture  
Dew Point 44 °F    
Average Humidity 45    
Maximum Humidity 83    
Minimum Humidity 28    
Precipitation  
Precipitation 0.00 in - - ()
Sea Level Pressure  
Sea Level Pressure 30.22 in    
Wind  
Wind Speed 5 mph (ENE)    
Max Wind Speed 12 mph    
Max Gust Speed 18 mph    
Visibility 10 miles    
Events      
Averages and records for this station are not official NWS values.
T = Trace of Precipitation, MM = Missing Value Source: NWS Daily Summary

Daily Weather History Graph

Daily Weather History Graph

Search for Another Location

Airport:

Trip Planner

Search our weather history database for the weather conditions in past years. The results will help you decide how hot, cold, wet, or windy it might be!

Date:

Astronomy

Apr. 26, 2013 Rise Set
Actual Time 6:08 AM CDT 7:23 PM CDT
Civil Twilight 5:43 AM CDT 7:48 PM CDT
Nautical Twilight 5:13 AM CDT 8:18 PM CDT
Astronomical Twilight 4:42 AM CDT 8:50 PM CDT
Moon 8:40 PM CDT (4/26) 6:39 AM CDT (4/26)
Length of Visible Light 14h 05m
Length of Day
13h 14m
Full, 99% of the Moon is Illuminated
Apr 26
Full
May 2
Last Quarter
May 9
New
May 17
First Quarter
May 24
Full

Hourly Weather History & Observations

Time (CDT) Temp. Dew Point Humidity Pressure Visibility Wind Dir Wind Speed Gust Speed Precip Events Conditions
12:56 AM 57.9 °F 37.9 °F 47% 30.22 in 10.0 mi NNE 4.6 mph - N/A   Clear
1:56 AM 57.0 °F 37.0 °F 47% 30.20 in 10.0 mi NNE 5.8 mph - N/A   Clear
2:56 AM 57.0 °F 36.0 °F 45% 30.19 in 10.0 mi NE 5.8 mph - N/A   Clear
3:56 AM 55.9 °F 36.0 °F 47% 30.19 in 10.0 mi NE 5.8 mph - N/A   Clear
4:56 AM 55.0 °F 36.0 °F 49% 30.20 in 10.0 mi NE 3.5 mph - N/A   Clear
5:56 AM 52.0 °F 36.0 °F 54% 30.22 in 10.0 mi NNE 4.6 mph - N/A   Partly Cloudy
6:56 AM 54.0 °F 37.0 °F 53% 30.25 in 10.0 mi NNE 4.6 mph - N/A   Partly Cloudy
7:56 AM 60.1 °F 39.0 °F 46% 30.25 in 10.0 mi ENE 9.2 mph - N/A   Partly Cloudy
8:56 AM 64.9 °F 37.9 °F 37% 30.26 in 10.0 mi ENE 9.2 mph 18.4 mph N/A   Clear
9:56 AM 70.0 °F 39.0 °F 32% 30.26 in 10.0 mi ENE 8.1 mph - N/A   Partly Cloudy
10:56 AM 73.9 °F 41.0 °F 30% 30.27 in 10.0 mi ENE 6.9 mph - N/A   Mostly Cloudy
11:56 AM 77.0 °F 45.0 °F 32% 30.27 in 10.0 mi East 8.1 mph - N/A   Mostly Cloudy
12:56 PM 79.0 °F 46.9 °F 32% 30.25 in 10.0 mi Variable 4.6 mph - N/A   Mostly Cloudy
1:56 PM 80.1 °F 48.9 °F 34% 30.23 in 10.0 mi Calm Calm - N/A   Mostly Cloudy
2:56 PM 81.0 °F 48.9 °F 33% 30.20 in 10.0 mi Calm Calm - N/A   Mostly Cloudy
3:56 PM 82.0 °F 46.0 °F 28% 30.19 in 10.0 mi South 9.2 mph - N/A   Mostly Cloudy
4:56 PM 80.1 °F 46.9 °F 31% 30.19 in 10.0 mi South 11.5 mph - N/A   Mostly Cloudy
5:56 PM 77.0 °F 48.9 °F 37% 30.19 in 10.0 mi South 9.2 mph - N/A   Scattered Clouds
6:56 PM 73.0 °F 50.0 °F 44% 30.19 in 10.0 mi South 6.9 mph - N/A   Scattered Clouds
7:56 PM 68.0 °F 50.0 °F 52% 30.19 in 10.0 mi SSW 5.8 mph - N/A   Scattered Clouds
8:56 PM 66.0 °F 52.0 °F 60% 30.19 in 9.0 mi SW 4.6 mph - N/A   Scattered Clouds
9:56 PM 64.0 °F 53.1 °F 67% 30.19 in 10.0 mi Calm Calm - N/A   Scattered Clouds
10:56 PM 63.0 °F 52.0 °F 67% 30.20 in 10.0 mi Calm Calm - N/A   Scattered Clouds
11:56 PM 57.0 °F 52.0 °F 83% 30.20 in 10.0 mi Calm Calm - N/A   Clear